Карточка аэропорта USSS

Внимание!
Информация на этой странице в стадии наполнения.
Если вы не увидели какой-то информации, или заметили неточность - пожалуйста сообщите нам!
Спасибо!
Команда RU-STAFF
Название аэропортаКольцово
Название аэропорта (англ.)Koltsovo
Превышение766 ft. (233.5 m.)
Координаты56°44.586', 60°48.186'
Высота перехода900m
Эшелон переходаQFE>=739mm:FL050; QFE 712mm-738mm:FL060; QFE<=712mm:FL70
Коды ответчика5520-5557
Зона ОрВДЕкатеринбург РПИ (USSV)
Данные METARUSSS 070530Z 00000MPS 1000 0750E R26L/0750D PRFG NSC M21/M24 Q1038 R26L/82//50 TEMPO 0500 FG RMK QFE757/1010
Проноз погоды (TAF)USSS 070534Z 0706/0806 16003MPS 6000 FEW016 TEMPO 0706/0708 0300 FG BECMG 0708/0711 26003G10MPS 9999
NOTAMshow/hide NOTAM
AWOS   TABLE

Информация о ВПП

ВПП Длина ВПП (м.) Покрытие Курс ВПП Частота ILS
26L3026Бетон259109.5
26R3004Асфальтобетон255110.5
08R3026Бетон79109.9
08L3004Асфальтобетон75111.7

Диспетчерские позиции

Позывной Наименование органа УВД Частота
USSSFM1Машина сопровождения119.000
USSS_APPКольцово-Подход125.9
USSS_ATIS_APPКольцово АТИС127.850
USSS_GNDКольцово-Руление119.0
USSS_R_APPКольцово-Круг118.7
USSS_TWRКольцово-Старт124.3
USSV_FSS_CTRКольцово Транзит131.900



Спутниковое изображение